Location: Northcutt
(34.7304°N, 84.4305°W)
Time: 08:50:01
(UTC+00:00)

S-56A Canister/Altair - Pass Details

Date: 10 October 2022
Orbit: 638 x 2494 km, 38.9° (Epoch: 08 December)

Event Time Altitude Azimuth Distance (km) Brightness Sun altitude
Rises 05:19:12 0° 255° (WSW) 6,162 - -61.9°
Reaches altitude 10° 05:23:22 10° 257° (WSW) 5,101 - -61.9°
Maximum altitude 05:38:01 81° 345° (NNW) 2,085 - -61.7°
Drops below altitude 10° 05:48:33 10° 73° (ENE) 3,791 - -61.4°
Exits shadow 05:51:10 - 75° (ENE) 4,548 11.7 -61.3°
Sets 05:51:11 0° 75° (ENE) 4,553 11.7 -61.3°
